This is the latest recevied weather packets stored in our database for station/object KE0LFX. If no packets are shown the sender has not sent any weather packets the latest 1 day(s).
| Time | Temp. | Humidity | Pressure | Rain* | Wind** | Luminosity | Snow |
|---|---|---|---|---|---|---|---|
| 1778010004 | 13.89° C | 39% | 1014.3 hPa | 0 mm | 0.89 m/s, 285° | 225 W/m² | - |
| 1778009702 | 14.44° C | 39% | 1014.6 hPa | 0 mm | 1.34 m/s, 293° | 269 W/m² | - |
| 1778009399 | 13.89° C | 41% | 1014.6 hPa | 0 mm | 0.89 m/s, 297° | 275 W/m² | - |
| 1778009098 | 13.89° C | 40% | 1014.5 hPa | 0 mm | 0.89 m/s, 255° | 280 W/m² | - |
| 1778008795 | 13.89° C | 38% | 1014.6 hPa | 0 mm | 3.58 m/s, 205° | 277 W/m² | - |
| 1778008493 | 13.89° C | 38% | 1014.8 hPa | 0 mm | 3.13 m/s, 242° | 299 W/m² | - |
| 1778008190 | 13.89° C | 38% | 1014.8 hPa | 0 mm | 1.79 m/s, 263° | 302 W/m² | - |
| 1778007885 | 13.33° C | 39% | 1015 hPa | 0 mm | 2.24 m/s, 279° | 305 W/m² | - |
| 1778007581 | 13.33° C | 40% | 1015.1 hPa | 0 mm | 1.34 m/s, 269° | 351 W/m² | - |
| 1778007278 | 13.89° C | 39% | 1015 hPa | 0 mm | 3.58 m/s, 271° | 382 W/m² | - |
| 1778006974 | 13.89° C | 38% | 1015.2 hPa | 0 mm | 2.24 m/s, 212° | 333 W/m² | - |
| 1778006671 | 13.33° C | 38% | 1015.2 hPa | 0 mm | 1.34 m/s, 251° | 351 W/m² | - |
| 1778006368 | 13.33° C | 39% | 1015.3 hPa | 0 mm | 1.79 m/s, 318° | 368 W/m² | - |
| 1778006065 | 13.33° C | 39% | 1015.4 hPa | 0 mm | 1.34 m/s, 241° | 277 W/m² | - |
| 1778005762 | 13.89° C | 40% | 1015.5 hPa | 0 mm | 0.89 m/s, 299° | 272 W/m² | - |
| 1778005458 | 13.33° C | 38% | 1015.2 hPa | 0 mm | 2.24 m/s, 338° | 278 W/m² | - |
| 1778005155 | 13.33° C | 39% | 1015.3 hPa | 0 mm | 0.89 m/s, 285° | 240 W/m² | - |
| 1778004852 | 13.89° C | 39% | 1015.4 hPa | 0 mm | 2.68 m/s, 293° | 255 W/m² | - |
| 1778004549 | 13.33° C | 39% | 1015.5 hPa | 0 mm | 1.79 m/s, 352° | 444 W/m² | - |
| 1778004246 | 12.78° C | 41% | 1015.2 hPa | 0 mm | 1.79 m/s, 300° | 728 W/m² | - |
| 1778003942 | 13.33° C | 40% | 1015.5 hPa | 0 mm | 2.68 m/s, 291° | 209 W/m² | - |
| 1778003638 | 12.78° C | 42% | 1015.6 hPa | 0 mm | 1.34 m/s, 244° | 237 W/m² | - |
| 1778003335 | 12.78° C | 41% | 1015.5 hPa | 0 mm | 0.45 m/s, 339° | 258 W/m² | - |
| 1778003032 | 12.78° C | 43% | 1015.6 hPa | 0 mm | 0.89 m/s, 274° | 240 W/m² | - |
| 1778002729 | 12.78° C | 41% | 1015.5 hPa | 0 mm | 0.45 m/s, 283° | 271 W/m² | - |
* Rain latest hour (hover to see other rain measurements)
** Current wind speed in m/s (hover to see current wind gust speed)